Location: Brede
(50.9167°N, 0.6000°E)
Time: 15:50:52
(UTC+00:00)

Tiros 1 - Visible Passes

Search period start: 26 November 2020 00:00
Search period end: 06 December 2020 00:00
Orbit: 630 x 664 km, 48.4° (Epoch: 25 November)

Date Brightness Start Highest point End Pass type
(mag) Time Alt. Az. Time Alt. Az. Time Alt. Az.
26 Nov 7.8 17:17:47 10° SW 17:22:22 46° SSE 17:25:37 18° E visible
26 Nov 7.9 18:59:33 10° W 19:03:17 50° WSW 19:03:17 50° WSW visible
27 Nov 7.4 17:43:30 10° WSW 17:48:14 60° S 17:50:29 29° ESE visible
27 Nov 8.8 19:25:31 10° W 19:28:08 31° WSW 19:28:08 31° WSW visible
28 Nov 8.0 16:27:40 10° SW 16:32:14 44° SSE 16:36:47 10° E visible
28 Nov 7.3 18:09:24 10° W 18:14:10 66° S 18:15:21 47° ESE visible
28 Nov 9.6 19:51:32 10° W 19:53:00 19° W 19:53:00 19° W visible
29 Nov 7.6 16:53:21 10° WSW 16:58:05 59° SSE 17:02:35 11° E visible
29 Nov 7.3 18:35:21 10° W 18:40:05 61° S 18:40:14 61° S visible
29 Nov 10.2 20:17:39 10° W 20:17:54 11° W 20:17:54 11° W visible
30 Nov 7.4 17:19:14 10° W 17:24:00 66° S 17:27:30 18° E visible
30 Nov 8.1 19:01:21 10° W 19:05:10 43° SW 19:05:10 43° SW visible
01 Dec 7.5 17:45:11 10° W 17:49:56 62° S 17:52:28 26° ESE visible
01 Dec 9.1 19:27:27 10° W 19:30:08 26° WSW 19:30:08 26° WSW visible
02 Dec 7.6 16:29:05 10° WSW 16:33:51 66° S 16:38:36 10° E visible
02 Dec 7.8 18:11:11 10° W 18:15:50 50° SSW 18:17:31 34° SE visible
02 Dec 9.8 19:53:51 10° W 19:55:12 15° WSW 19:55:12 15° WSW visible
03 Dec 7.6 16:55:02 10° W 16:59:48 63° S 17:04:31 10° ESE visible
03 Dec 8.4 18:37:16 10° W 18:41:36 35° SSW 18:42:40 31° S visible
04 Dec 7.9 17:21:01 10° W 17:25:41 52° SSW 17:30:15 10° ESE visible
04 Dec 9.1 19:03:36 10° W 19:07:14 22° SW 19:07:57 21° SSW visible
05 Dec 8.5 17:47:04 10° W 17:51:29 36° SSW 17:55:41 11° SE visible
05 Dec 9.9 19:30:59 10° WSW 19:32:42 12° SW 19:33:24 11° SW visible
